DW6558 Weather Reports


Display with metric or nautical units.
time (UTC)temp
F
wind
direction
speed
MPH
gust
MPH
rain 1hr
in
rain 24hr
in
rain mn
in
humidity
%
barometer
mb
20260509213354 65 324 7.0 21.0 0.00 0.00 0.00 19 932.6
20260509212852 65 333 8.0 17.0 0.00 0.00 0.00 18 932.5
20260509212349 66 336 17.0 22.0 0.00 0.00 0.00 17 932.6
20260509211844 66 338 15.0 23.0 0.00 0.00 0.00 18 932.8
20260509211340 66 323 8.0 15.0 0.00 0.00 0.00 20 932.4
20260509210837 67 310 11.0 20.0 0.00 0.00 0.00 18 932.7
20260509210335 68 290 13.0 17.0 0.00 0.00 0.00 18 932.7
20260509205834 67 321 14.0 20.0 0.00 0.00 0.00 19 932.8
20260509205329 66 333 6.0 13.0 0.00 0.00 0.00 19 932.8
20260509204826 68 288 8.0 15.0 0.00 0.00 0.00 18 932.7
20260509204323 67 284 17.0 29.0 0.00 0.00 0.00 18 932.8
20260509203819 66 8 12.0 16.0 0.00 0.00 0.00 19 932.6
20260509203316 66 334 12.0 16.0 0.00 0.00 0.00 18 932.6
20260509202812 66 294 7.0 15.0 0.00 0.00 0.00 16 932.8
20260509202308 67 335 12.0 22.0 0.00 0.00 0.00 20 932.7
20260509201807 67 299 14.0 21.0 0.00 0.00 0.00 17 932.6
20260509201305 66 312 7.0 10.0 0.00 0.00 0.00 18 932.6
20260509200801 66 27 9.0 17.0 0.00 0.00 0.00 18 932.4
20260509200256 66 296 13.0 16.0 0.00 0.00 0.00 19 932.7
20260509195752 65 341 8.0 16.0 0.00 0.00 0.00 19 932.7
20260509195247 66 290 15.0 17.0 0.00 0.00 0.00 18 932.7
20260509194742 65 349 11.0 18.0 0.00 0.00 0.00 19 932.7
20260509194238 65 338 7.0 14.0 0.00 0.00 0.00 19 933.1
20260509193735 66 256 4.0 15.0 0.00 0.00 0.00 21 932.8
20260509193235 66 312 7.0 13.0 0.00 0.00 0.00 21 932.8
20260509192731 66 283 9.0 14.0 0.00 0.00 0.00 20 932.8
20260509192226 66 328 7.0 11.0 0.00 0.00 0.00 19 932.8
20260509191722 65 334 5.0 17.0 0.00 0.00 0.00 18 932.7
20260509191219 66 345 9.0 18.0 0.00 0.00 0.00 19 933.2
20260509190715 66 230 8.0 13.0 0.00 0.00 0.00 20 933.2
20260509190212 65 247 15.0 20.0 0.00 0.00 0.00 19 933.1
20260509185710 65 271 6.0 17.0 0.00 0.00 0.00 20 933.3
20260509185206 65 314 15.0 20.0 0.00 0.00 0.00 20 932.9
20260509184703 66 359 0.0 8.0 0.00 0.00 0.00 21 932.7
20260509184200 64 265 6.0 13.0 0.00 0.00 0.00 22 933.1
20260509183656 64 243 4.0 14.0 0.00 0.00 0.00 21 932.8
20260509183152 65 332 12.0 17.0 0.00 0.00 0.00 21 932.7
20260509182647 65 348 4.0 13.0 0.00 0.00 0.00 22 932.9
20260509182145 65 298 2.0 9.0 0.00 0.00 0.00 21 932.9
20260509181643 64 320 8.0 15.0 0.00 0.00 0.00 21 933.1
20260509181141 64 337 7.0 17.0 0.00 0.00 0.00 22 933.2
20260509180637 65 6 4.0 11.0 0.00 0.00 0.00 20 933.1
20260509180133 64 1 7.0 13.0 0.00 0.00 0.00 19 933.1
20260509175629 64 285 4.0 10.0 0.00 0.00 0.00 22 933.4
20260509175126 64 258 9.0 14.0 0.00 0.00 0.00 18 933.2
20260509174622 63 256 6.0 9.0 0.00 0.00 0.00 23 933.1
20260509174117 64 300 5.0 9.0 0.00 0.00 0.00 24 933.3
20260509173613 64 271 5.0 10.0 0.00 0.00 0.00 23 933.3
20260509173109 63 340 4.0 10.0 0.00 0.00 0.00 21 933.3
20260509172606 63 316 7.0 15.0 0.00 0.00 0.00 22 933.3
20260509172102 62 260 10.0 17.0 0.00 0.00 0.00 22 933.3
20260509171558 62 327 2.0 7.0 0.00 0.00 0.00 25 933.3
20260509171054 62 8 3.0 10.0 0.00 0.00 0.00 24 933.4
20260509170550 62 284 4.0 11.0 0.00 0.00 0.00 24 933.3
20260509170047 62 246 4.0 9.0 0.00 0.00 0.00 24 933.2
20260509165545 62 251 1.0 2.0 0.00 0.00 0.00 26 933.1
20260509165041 61 302 1.0 7.0 0.00 0.00 0.00 25 933.3
20260509164537 60 326 4.0 9.0 0.00 0.00 0.00 26 933.2
20260509164033 59 101 1.0 6.0 0.00 0.00 0.00 26 933.3
20260509163531 58 271 2.0 7.0 0.00 0.00 0.00 27 933.4
20260509163026 59 244 5.0 11.0 0.00 0.00 0.00 29 933.4
20260509162524 59 226 2.0 9.0 0.00 0.00 0.00 28 933.4
20260509162019 59 292 7.0 11.0 0.00 0.00 0.00 28 933.3
20260509161516 59 246 6.0 9.0 0.00 0.00 0.00 27 933.3
20260509161011 59 303 6.0 10.0 0.00 0.00 0.00 27 933.5
20260509160507 58 304 5.0 9.0 0.00 0.00 0.00 28 933.4
20260509160003 58 267 3.0 5.0 0.00 0.00 0.00 29 933.4
20260509155459 58 355 3.0 6.0 0.00 0.00 0.00 27 933.4
20260509154955 58 261 3.0 7.0 0.00 0.00 0.00 29 933.5
20260509154451 58 246 5.0 8.0 0.00 0.00 0.00 29 933.4
20260509153949 58 213 4.0 10.0 0.00 0.00 0.00 30 933.4
20260509153446 58 255 5.0 8.0 0.00 0.00 0.00 30 933.5
20260509152943 57 33 0.0 3.0 0.00 0.00 0.00 30 933.4
20260509152438 57 242 9.0 10.0 0.00 0.00 0.00 30 933.5
20260509151936 57 343 8.0 10.0 0.00 0.00 0.00 30 933.5
20260509151432 57 12 0.0 5.0 0.00 0.00 0.00 31 933.6
20260509150930 57 301 3.0 9.0 0.00 0.00 0.00 31 933.5
20260509150427 57 260 5.0 7.0 0.00 0.00 0.00 31 933.5
20260509145926 55 125 2.0 5.0 0.00 0.00 0.00 33 933.7
20260509145426 55 253 6.0 10.0 0.00 0.00 0.00 31 933.4
20260509144921 55 216 4.0 9.0 0.00 0.00 0.00 32 933.5
20260509144418 55 263 1.0 7.0 0.00 0.00 0.00 33 933.3
20260509143915 55 235 3.0 7.0 0.00 0.00 0.00 33 933.1
20260509143413 54 226 3.0 8.0 0.00 0.00 0.00 34 933.2
20260509142909 54 265 4.0 8.0 0.00 0.00 0.00 37 933.2
20260509142406 53 237 2.0 7.0 0.00 0.00 0.00 39 933.3
20260509141901 52 277 1.0 6.0 0.00 0.00 0.00 43 933.1
20260509141358 52 244 4.0 7.0 0.00 0.00 0.00 44 933.1
20260509140855 50 20 0.0 5.0 0.00 0.00 0.00 45 933.2
20260509140352 50 0 2.0 3.0 0.00 0.00 0.00 48 933.3
20260509135850 49 4 2.0 3.0 0.00 0.00 0.00 48 933.5
20260509135347 49 33 1.0 2.0 0.00 0.00 0.00 49 933.4
20260509134844 49 60 1.0 1.0 0.00 0.00 0.00 48 933.1
20260509134341 48 67 1.0 2.0 0.00 0.00 0.00 48 933.3
20260509133838 45 60 0.0 2.0 0.00 0.00 0.00 56 933.2
20260509133335 45 68 2.0 2.0 0.00 0.00 0.00 58 933.1
20260509132834 45 72 2.0 3.0 0.00 0.00 0.00 58 933.3
20260509132332 47 26 1.0 2.0 0.00 0.00 0.00 48 933.2
20260509131828 47 33 1.0 1.0 0.00 0.00 0.00 49 933.1
20260509131325 47 34 0.0 1.0 0.00 0.00 0.00 49 933.1
20260509130821 46 166 2.0 3.0 0.00 0.00 0.00 54 933.1
20260509130317 46 67 0.0 2.0 0.00 0.00 0.00 51 933.1
20260509125814 44 68 0.0 2.0 0.00 0.00 0.00 55 932.6
20260509125310 44 127 3.0 6.0 0.00 0.00 0.00 55 932.7
20260509124807 43 80 0.0 0.0 0.00 0.00 0.00 54 932.5
20260509124303 42 103 0.0 0.0 0.00 0.00 0.00 57 932.4
20260509123802 42 109 0.0 0.0 0.00 0.00 0.00 59 932.3
20260509123259 42 109 0.0 0.0 0.00 0.00 0.00 58 932.3
20260509122754 44 90 2.0 5.0 0.00 0.00 0.00 54 932.1
20260509122252 44 202 0.0 5.0 0.00 0.00 0.00 51 931.8
20260509121748 44 210 0.0 2.0 0.00 0.00 0.00 52 931.9
20260509121245 43 274 0.0 3.0 0.00 0.00 0.00 53 931.9
20260509120744 42 356 0.0 5.0 0.00 0.00 0.00 57 931.7
20260509120241 41 10 0.0 0.0 0.00 0.00 0.00 60 931.8
20260509115739 42 54 0.0 0.0 0.00 0.00 0.00 61 931.8
20260509115235 42 56 0.0 0.0 0.00 0.00 0.00 60 931.7
20260509114734 43 17 0.0 0.0 0.00 0.00 0.00 58 931.6
20260509114232 42 256 0.0 0.0 0.00 0.00 0.00 60 931.6
20260509113731 40 82 0.0 0.0 0.00 0.00 0.00 67 931.6
20260509113228 41 68 0.0 0.0 0.00 0.00 0.00 65 931.3
20260509112724 43 43 0.0 0.0 0.00 0.00 0.00 60 931.2
20260509112222 43 342 0.0 6.0 0.00 0.00 0.00 61 931.5
20260509111718 42 321 1.0 5.0 0.00 0.00 0.00 64 931.5
20260509111215 42 299 0.0 3.0 0.00 0.00 0.00 65 931.6
20260509110713 42 315 0.0 0.0 0.00 0.00 0.00 65 931.7
20260509110209 42 246 0.0 1.0 0.00 0.00 0.00 65 931.3
20260509105708 41 43 0.0 0.0 0.00 0.00 0.00 69 931.6
20260509105204 40 80 0.0 2.0 0.00 0.00 0.00 69 931.2
20260509104702 40 78 0.0 0.0 0.00 0.00 0.00 69 931.5
20260509104158 41 74 0.0 0.0 0.00 0.00 0.00 69 931.3
20260509103656 41 53 0.0 0.0 0.00 0.00 0.00 68 931.2
20260509103154 41 214 1.0 5.0 0.00 0.00 0.00 68 931.3
20260509102652 40 3 0.0 0.0 0.00 0.00 0.00 73 931.5
20260509102148 40 25 0.0 0.0 0.00 0.00 0.00 73 931.2
20260509101644 40 24 0.0 2.0 0.00 0.00 0.00 74 931.2
20260509101141 40 17 2.0 2.0 0.00 0.00 0.00 74 931.3
20260509100639 39 13 0.0 5.0 0.00 0.00 0.00 76 931.2
20260509100136 38 19 0.0 0.0 0.00 0.00 0.00 79 931.1
20260509095632 37 48 1.0 3.0 0.00 0.00 0.00 79 931.2
20260509095130 38 49 0.0 1.0 0.00 0.00 0.00 77 931.0
20260509094626 39 75 0.0 0.0 0.00 0.00 0.00 77 931.2
20260509094123 39 76 0.0 0.0 0.00 0.00 0.00 76 931.6
20260509093622 39 89 0.0 0.0 0.00 0.00 0.00 75 931.3
20260509093118 39 123 0.0 0.0 0.00 0.00 0.00 75 931.1
20260509092616 39 149 0.0 0.0 0.00 0.00 0.00 76 931.1
20260509092115 39 88 0.0 0.0 0.00 0.00 0.00 76 931.2
20260509091612 40 39 3.0 3.0 0.00 0.00 0.00 75 931.1
20260509091108 40 36 0.0 0.0 0.00 0.00 0.00 75 931.1
20260509090605 40 90 0.0 0.0 0.00 0.00 0.00 74 931.1
20260509090057 40 154 4.0 7.0 0.00 0.00 0.00 74 931.2
20260509085554 41 152 1.0 3.0 0.00 0.00 0.00 72 931.3
20260509085050 41 110 0.0 0.0 0.00 0.00 0.00 73 931.1
20260509084547 40 106 2.0 6.0 0.00 0.00 0.00 74 931.3
20260509084045 41 120 0.0 5.0 0.00 0.00 0.00 74 931.3
20260509083542 41 151 4.0 8.0 0.00 0.00 0.00 73 931.1
20260509083038 41 130 0.0 3.0 0.00 0.00 0.00 72 931.2
20260509082536 41 137 3.0 5.0 0.00 0.00 0.00 71 931.3
20260509082033 42 131 0.0 5.0 0.00 0.00 0.00 71 931.1
20260509081530 42 99 0.0 0.0 0.00 0.00 0.00 70 931.2
20260509081027 42 46 0.0 5.0 0.00 0.00 0.00 69 931.2
20260509080525 43 127 0.0 0.0 0.00 0.00 0.00 69 931.2
20260509080023 42 106 0.0 0.0 0.00 0.00 0.00 69 931.2
20260509075520 43 89 0.0 0.0 0.00 0.00 0.00 69 931.1
20260509075018 43 127 0.0 0.0 0.00 0.00 0.00 69 931.1
20260509074515 43 136 0.0 0.0 0.00 0.00 0.00 69 931.2
20260509074011 43 108 0.0 0.0 0.00 0.00 0.00 69 931.2
20260509073508 42 132 3.0 5.0 0.00 0.00 0.00 70 931.0
20260509073004 42 87 0.0 0.0 0.00 0.00 0.00 70 931.1
20260509072501 43 136 2.0 3.0 0.00 0.00 0.00 70 931.1
20260509071957 44 124 1.0 3.0 0.00 0.00 0.00 68 931.1
20260509071454 44 113 0.0 0.0 0.00 0.00 0.00 67 931.0
20260509070952 44 110 0.0 0.0 0.00 0.00 0.00 67 931.5
20260509070449 43 76 0.0 0.0 0.00 0.00 0.00 68 931.2
20260509065944 44 93 0.0 3.0 0.00 0.00 0.00 67 931.0
20260509065440 44 66 1.0 3.0 0.00 0.00 0.00 68 931.3
20260509064936 44 51 0.0 0.0 0.00 0.00 0.00 67 931.1
20260509064434 44 96 0.0 3.0 0.00 0.00 0.00 67 930.9
20260509063932 45 93 0.0 0.0 0.00 0.00 0.00 66 930.9
20260509063427 46 56 1.0 1.0 0.00 0.00 0.00 65 931.0
20260509062924 46 87 0.0 0.0 0.00 0.00 0.00 62 930.9
20260509062422 46 104 0.0 0.0 0.00 0.00 0.00 63 931.0
20260509061919 46 124 0.0 0.0 0.00 0.00 0.00 63 931.1
20260509061417 46 129 0.0 0.0 0.00 0.00 0.00 63 931.0
20260509060913 46 122 2.0 2.0 0.00 0.00 0.00 63 930.7
20260509060411 47 106 0.0 3.0 0.00 0.00 0.00 63 931.1
20260509055906 46 133 2.0 5.0 0.00 0.00 0.00 62 930.9
20260509055401 46 100 3.0 5.0 0.00 0.00 0.00 63 931.0
20260509054858 47 122 2.0 3.0 0.00 0.00 0.00 62 930.9
20260509054355 47 51 0.0 0.0 0.00 0.00 0.00 64 930.9
20260509053853 48 79 0.0 0.0 0.00 0.00 0.00 60 930.9
20260509053350 48 82 0.0 0.0 0.00 0.00 0.00 59 931.0
20260509052849 48 114 0.0 0.0 0.00 0.00 0.00 60 931.1
20260509052346 48 120 0.0 0.0 0.00 0.00 0.00 61 931.0
20260509051843 48 98 0.0 0.0 0.00 0.00 0.00 62 931.0
20260509051341 49 80 0.0 0.0 0.00 0.00 0.00 59 931.0
20260509050838 49 77 0.0 0.0 0.00 0.00 0.00 59 931.1
20260509050335 48 91 0.0 0.0 0.00 0.00 0.00 60 931.1
20260509045831 48 90 0.0 0.0 0.00 0.00 0.00 61 930.9
20260509045328 50 90 0.0 0.0 0.00 0.00 0.00 58 930.9
20260509044826 50 72 0.0 0.0 0.00 0.00 0.00 57 930.9
20260509044323 49 63 0.0 0.0 0.00 0.00 0.00 61 930.9
20260509043819 48 71 0.0 0.0 0.00 0.00 0.00 62 931.0
20260509043316 48 48 0.0 0.0 0.00 0.00 0.00 61 930.8
20260509042811 51 56 0.0 0.0 0.00 0.00 0.00 55 930.9
20260509042308 52 55 0.0 0.0 0.00 0.00 0.00 53 930.8
20260509041804 52 55 0.0 0.0 0.00 0.00 0.00 54 931.0
20260509041302 51 48 0.0 0.0 0.00 0.00 0.00 54 930.8
20260509040800 51 52 0.0 0.0 0.00 0.00 0.00 54 930.9
20260509040257 51 52 0.0 0.0 0.00 0.00 0.00 55 930.8
20260509035754 52 51 0.0 0.0 0.00 0.00 0.00 54 930.7
20260509035251 53 49 0.0 0.0 0.00 0.00 0.00 53 930.5
20260509034747 53 50 0.0 0.0 0.00 0.00 0.00 53 930.5
20260509034245 54 35 0.0 0.0 0.00 0.00 0.00 51 930.3
20260509033742 55 31 0.0 0.0 0.00 0.00 0.00 49 930.4
20260509033239 55 39 0.0 1.0 0.00 0.00 0.00 46 930.4
20260509032736 55 42 0.0 0.0 0.00 0.00 0.00 47 930.3
20260509032233 56 42 0.0 0.0 0.00 0.00 0.00 46 930.3
20260509031731 57 41 0.0 0.0 0.00 0.00 0.00 44 930.1
20260509031228 57 325 0.0 5.0 0.00 0.00 0.00 44 930.1
20260509030726 57 350 0.0 0.0 0.00 0.00 0.00 45 930.2
20260509030223 57 247 0.0 1.0 0.00 0.00 0.00 44 930.0
20260509025720 58 44 0.0 0.0 0.00 0.00 0.00 43 930.0
20260509025216 59 20 0.0 0.0 0.00 0.00 0.00 42 929.9
20260509024711 59 346 0.0 0.0 0.00 0.00 0.00 41 929.9
20260509024207 59 15 0.0 0.0 0.00 0.00 0.00 41 929.6
20260509023705 60 29 0.0 0.0 0.00 0.00 0.00 40 929.9
20260509023202 61 23 0.0 0.0 0.00 0.00 0.00 39 930.0
20260509022657 61 10 0.0 0.0 0.00 0.00 0.00 38 930.0
20260509022156 62 263 3.0 3.0 0.00 0.00 0.00 37 930.0
20260509021652 62 337 0.0 0.0 0.00 0.00 0.00 36 929.9
20260509021149 63 1 2.0 3.0 0.00 0.00 0.00 35 930.0
20260509020648 63 302 0.0 1.0 0.00 0.00 0.00 35 929.9
20260509020144 63 3 0.0 2.0 0.00 0.00 0.00 36 929.7
20260509015643 64 330 0.0 5.0 0.00 0.00 0.00 34 930.0
20260509015140 64 308 5.0 8.0 0.00 0.00 0.00 34 929.7
20260509014637 65 297 1.0 7.0 0.00 0.00 0.00 33 929.5
20260509014133 65 355 3.0 8.0 0.00 0.00 0.00 32 929.9
20260509013630 65 329 1.0 9.0 0.00 0.00 0.00 32 930.0
20260509013126 66 308 3.0 8.0 0.00 0.00 0.00 31 930.1
20260509012623 66 351 0.0 7.0 0.00 0.00 0.00 31 930.1
20260509012119 66 324 4.0 8.0 0.00 0.00 0.00 31 930.2
20260509011618 66 305 9.0 13.0 0.00 0.00 0.00 30 930.2
20260509011114 67 314 6.0 8.0 0.00 0.00 0.00 30 930.3
20260509010612 67 326 4.0 10.0 0.00 0.00 0.00 30 930.3
20260509010108 67 335 5.0 13.0 0.00 0.00 0.00 30 930.5
20260509005606 68 310 7.0 11.0 0.00 0.00 0.00 30 930.3
20260509005101 68 41 0.0 2.0 0.00 0.00 0.00 31 930.4
20260509004558 66 12 0.0 8.0 0.00 0.00 0.00 31 930.2
20260509004055 67 318 1.0 8.0 0.00 0.00 0.00 31 930.2
20260509003554 67 0 0.0 8.0 0.00 0.00 0.00 32 930.3
20260509003051 68 293 4.0 9.0 0.00 0.00 0.00 31 930.4
20260509002548 67 343 5.0 6.0 0.00 0.00 0.00 31 930.1
20260509002045 67 302 4.0 18.0 0.00 0.00 0.00 31 930.3
20260509001542 68 312 9.0 16.0 0.00 0.00 0.00 30 930.9
20260509001038 67 299 3.0 10.0 0.00 0.00 0.00 31 930.9
20260509000537 67 333 10.0 16.0 0.00 0.00 0.00 31 930.5
20260509000033 67 6 11.0 13.0 0.00 0.00 0.00 31 930.8
20260508235531 67 337 7.0 11.0 0.00 0.00 0.00 31 930.5
20260508235026 66 355 7.0 13.0 0.00 0.00 0.00 33 930.5
20260508234524 67 299 4.0 10.0 0.00 0.00 0.00 31 930.4
20260508234021 67 302 2.0 14.0 0.00 0.00 0.00 32 930.7
20260508233520 66 357 9.0 14.0 0.00 0.00 0.00 32 930.3
20260508233017 67 271 5.0 8.0 0.00 0.00 0.00 31 930.4
20260508232514 68 238 4.0 7.0 0.00 0.00 0.00 30 930.4
20260508232011 68 328 11.0 14.0 0.00 0.00 0.00 30 930.4
20260508231508 68 224 1.0 13.0 0.00 0.00 0.00 30 930.4
20260508231005 68 275 5.0 20.0 0.00 0.00 0.00 30 930.3
20260508230502 68 255 5.0 9.0 0.00 0.00 0.00 30 930.5
20260508225958 68 301 3.0 10.0 0.00 0.00 0.00 30 930.3
20260508225456 69 230 10.0 14.0 0.00 0.00 0.00 29 930.4
20260508224953 68 293 4.0 17.0 0.00 0.00 0.00 29 930.2
20260508224450 68 326 6.0 10.0 0.00 0.00 0.00 29 930.2
20260508223947 68 282 6.0 20.0 0.00 0.00 0.00 30 930.3
20260508223445 69 356 8.0 13.0 0.00 0.00 0.00 28 930.3
20260508222942 68 337 6.0 17.0 0.00 0.00 0.00 29 930.4
20260508222440 69 301 6.0 21.0 0.00 0.00 0.00 30 930.1
20260508221936 69 242 7.0 15.0 0.00 0.00 0.00 28 930.2
20260508221432 69 288 6.0 11.0 0.00 0.00 0.00 29 930.4
20260508220928 70 298 1.0 16.0 0.00 0.00 0.00 30 930.4
20260508220425 69 249 2.0 10.0 0.00 0.00 0.00 30 930.7
20260508215921 70 274 4.0 13.0 0.00 0.00 0.00 30 930.4
20260508215418 69 290 15.0 21.0 0.00 0.00 0.00 31 930.4
20260508214915 70 290 9.0 11.0 0.00 0.00 0.00 31 930.7
20260508214413 69 314 5.0 16.0 0.00 0.00 0.00 30 930.5
20260508213908 69 281 8.0 14.0 0.00 0.00 0.00 29 930.5